Location: Joffre
(52.3362°N, 113.5373°W)
Time: 13:43:44
(UTC+00:00)

Envisat - Pass Details

Date: 06 December 2021
Orbit: 764 x 766 km, 98.2° (Epoch: 28 January)

Event Time Altitude Azimuth Distance (km) Brightness Sun altitude
Rises 14:15:23 0° 7° (N) 3,248 6.1 -10.5°
Reaches altitude 10° 14:18:06 10° 353° (N) 2,317 5.2 -10.1°
Maximum altitude 14:22:01 23° 303° (WNW) 1,596 4.1 -9.5°
Drops below altitude 10° 14:25:55 10° 252° (WSW) 2,305 5.1 -9.0°
Sets 14:28:38 0° 238° (WSW) 3,227 5.9 -8.6°
